map of DEC home
DEC - Airport
Location
City:  Decatur, Illinois, United States
ICAO:KDEC
IATA:DEC
FAA LID:DEC

Details
Type:Airport (Part 139 Class II)
Use:Public/Civil
Latitude:3950'04"N (39.834562)
Longitude:8851'56"W (-88.865688)
Datum:WGS 1984
Elevation:681 ft (208 m)
Variation:2.73W (WMM2015 magnetic declination)
-0.07 annual change
Runways:3
Longest:8496 × 150 ft (2590 × 45.5 m), paved

Time
Time Zone:UTC-6 (DST-5)
Local Time:

Weather
METAR:KDEC 180954Z AUTO 05005KT 10SM CLR 15/15 A3010 RMK AO2 SLP189 T01500150
TAF:KDEC 180520Z 1806/1906 VRB05KT P6SM FEW250
FM181700 07007KT P6SM FEW050
FM190000 06005KT P6SM SCT250

Related Locations
Nearby:
Farthest:YAUG: 11066 mi / 17809 km
Augusta [Augusta Airport], WA, AU

Find:

   beyond  
but within

Other Information
Maps:
Delays:
NOTAMs:
Links:
Sources:

  
  • flag of United States
  • flag of Illinois
  

Airport Diagram

Airport diagram for DEC

Airport diagram PDF

Sectional Chart

Flight Planning
at skyvector.com

Satellite Image

Google Maps Satellite view

 

Copyright © 2004-2018 Karl L. Swartz. All rights reserved.
The Great Circle Mapper name and logo are trademarks of the Great Circle Mapper.
All other trademarks mentioned herein belong to their respective owners.
Please see credits for attibutions and further copyright information.

  Follow gcmap on Facebook Follow gcmap on Twitter Follow gcmap on Google+ GCmap on LinkedIn

hCard Microformat

Geo Microformat